Location: Harmony
(28.2000°N, 81.1500°W)
Time: 02:57:09
(UTC-05:00)

Thor Agena Rocket - Pass Details

Date: 18 December 2017
Orbit: 760 x 807 km, 99.1° (Epoch: 22 January)

Event Time Altitude Azimuth Distance (km) Brightness Sun altitude
Exits shadow 19:49:33 33° 336° (NNW) 1,315 4.7 -29.4°
Maximum altitude 19:51:24 47° 287° (WNW) 1,053 4.4 -29.8°
Drops below altitude 10° 19:56:26 10° 214° (SW) 2,379 6.5 -30.9°
Sets 19:58:50 0° 209° (SSW) 3,308 7.3 -31.4°
